Location: Albuquerque Trailhead
(34.7934°N, 106.3736°W)
Time: 15:45:31
(UTC+00:00)

SL-4 R/B - Pass Details

Date: 20 June 2021
Orbit: 428 x 662 km, 51.6° (Epoch: 26 July)

Event Time Altitude Azimuth Distance (km) Brightness Sun altitude
Rises 11:00:59 0° 323° (NW) 2,465 5.4 -9.6°
Reaches altitude 10° 11:03:31 10° 340° (NNW) 1,561 4.6 -9.2°
Maximum altitude 11:06:15 21° 32° (NNE) 1,025 4.4 -8.8°
Drops below altitude 10° 11:08:56 10° 84° (E) 1,521 5.3 -8.3°
Sets 11:11:21 0° 101° (E) 2,380 6.0 -7.9°
